Location: Marengo
(51.4813°N, 109.7825°W)
Time: 21:40:04
(UTC+00:00)

X-37B - Pass Details

Date: 02 February 2022
Orbit: 329 x 342 km, 45.0° (Epoch: 18 May)

Event Time Altitude Azimuth Distance (km) Brightness Sun altitude
Rises 02:52:11 0° 258° (WSW) 2,119 5.5 -25.4°
Reaches altitude 10° 02:54:32 10° 239° (WSW) 1,277 3.9 -25.8°
Enters shadow 02:54:50 12° 235° (SW) 1,186 3.6 -25.8°
